TimeEDT,TemperatureF,Dew PointF,Humidity,Sea Level PressureIn,VisibilityMPH,Wind Direction,Wind SpeedMPH,Gust SpeedMPH,PrecipitationIn,Events,Conditions,WindDirDegrees,DateUTC
12:53 AM,62.1,55.0,78,30.10,10.0,ENE,9.2,-,N/A,,Clear,70,2013-07-12 04:53:00
1:53 AM,59.0,53.1,81,30.10,10.0,ENE,5.8,-,N/A,,Clear,60,2013-07-12 05:53:00
2:53 AM,57.9,53.1,84,30.11,10.0,East,3.5,-,N/A,,Clear,90,2013-07-12 06:53:00
3:53 AM,55.9,53.1,90,30.11,10.0,Calm,Calm,-,N/A,,Clear,0,2013-07-12 07:53:00
4:53 AM,55.9,52.0,87,30.14,10.0,NNW,3.5,-,N/A,,Clear,340,2013-07-12 08:53:00
5:53 AM,55.9,52.0,87,30.17,10.0,Calm,Calm,-,N/A,,Clear,0,2013-07-12 09:53:00
6:53 AM,57.0,53.1,87,30.16,10.0,North,3.5,-,N/A,,Clear,360,2013-07-12 10:53:00
7:53 AM,62.1,55.9,80,30.17,7.0,NNE,4.6,-,N/A,,Clear,30,2013-07-12 11:53:00
8:53 AM,64.9,57.0,75,30.18,10.0,NE,5.8,-,N/A,,Clear,40,2013-07-12 12:53:00
9:53 AM,69.1,55.9,63,30.19,10.0,North,6.9,-,N/A,,Clear,10,2013-07-12 13:53:00
10:53 AM,72.0,57.0,59,30.18,10.0,Variable,4.6,-,N/A,,Clear,0,2013-07-12 14:53:00
11:53 AM,73.9,57.0,55,30.17,10.0,ESE,4.6,-,N/A,,Clear,120,2013-07-12 15:53:00
12:53 PM,75.9,59.0,56,30.16,10.0,Variable,3.5,-,N/A,,Clear,0,2013-07-12 16:53:00
1:53 PM,79.0,60.1,52,30.15,10.0,NE,5.8,-,N/A,,Mostly Cloudy,50,2013-07-12 17:53:00
2:53 PM,79.0,57.9,48,30.14,10.0,NE,3.5,16.1,N/A,,Mostly Cloudy,40,2013-07-12 18:53:00
3:53 PM,79.0,59.0,50,30.14,10.0,SSE,6.9,-,N/A,,Partly Cloudy,150,2013-07-12 19:53:00
4:53 PM,82.9,57.9,42,30.14,10.0,Calm,Calm,-,N/A,,Partly Cloudy,0,2013-07-12 20:53:00
5:53 PM,80.1,55.9,43,30.13,10.0,Calm,Calm,-,N/A,,Partly Cloudy,0,2013-07-12 21:53:00
6:53 PM,77.0,59.0,54,30.12,10.0,ESE,4.6,-,N/A,,Overcast,110,2013-07-12 22:53:00
7:53 PM,78.1,59.0,52,30.13,10.0,East,3.5,-,N/A,,Clear,80,2013-07-12 23:53:00
8:53 PM,75.0,59.0,57,30.13,10.0,East,3.5,-,N/A,,Clear,100,2013-07-13 00:53:00
9:53 PM,73.0,60.1,64,30.14,8.0,NNE,6.9,-,N/A,,Clear,30,2013-07-13 01:53:00
10:53 PM,71.1,61.0,70,30.15,10.0,NE,5.8,-,N/A,,Clear,40,2013-07-13 02:53:00
11:53 PM,68.0,57.9,70,30.16,10.0,East,5.8,-,N/A,,Clear,100,2013-07-13 03:53:00